Nome, AK

11:37 AM AKDT on April 27, 2017 (GMT -0800)
Nome

Weather History for PAOM - May, 2014

Change the Weather History Date:

Sunday, May 11, 2014

  Actual Average Record
Temperature  
Mean Temperature 34 °F 35 °F  
Max Temperature 37 °F 41 °F 62 °F (1995)
Min Temperature 30 °F 29 °F 6 °F (1920)
Degree Days  
Heating Degree Days 31 30  
Month to date heating degree days 362 360  
Since 1 July heating degree days 11228 12673  
Cooling Degree Days 0    
Month to date cooling degree days 0  
Year to date cooling degree days 0  
Moisture  
Dew Point 34 °F    
Average Humidity 0    
Maximum Humidity 0    
Minimum Humidity 0    
Precipitation  
Precipitation 0.00 in 0.03 in 0.38 in (1918)
Month to date precipitation 0.42 0.31  
Year to date precipitation 3.57 3.59  
Snow  
Snow 0.00 in 0.10 in 1.30 in (1919)
Month to date snowfall 1.7 1.3  
Since 1 July snowfall 71.4 74.4  
Snow Depth 0.00 in    
Sea Level Pressure  
Sea Level Pressure 30.35 in    
Wind  
Wind Speed 6 mph (SSW)    
Max Wind Speed 13 mph    
Max Gust Speed 15 mph    
Visibility 6 miles    
Events Fog    
T = Trace of Precipitation, MM = Missing Value Source: NWS Daily Summary

Daily Weather History Graph

Daily Weather History Graph

Search for Another Location

Airport or City:

Trip Planner

Search our weather history database for the weather conditions in past years. The results will help you decide how hot, cold, wet, or windy it might be!

Date:

Astronomy

May. 11, 2014 Rise Set
Actual Time 5:55 AM AKDT 12:03 AM AKDT
Civil Twilight 4:21 AM AKDT 1:40 AM AKDT
Nautical Twilight Sun does not set Sun does not set
Astronomical Twilight Sun does not set Sun does not set
Moon 8:00 PM AKDT (5/11) 5:31 AM AKDT (5/11)
Length of Visible Light 21h 19m
Length of Day
18h 07m
Waxing Gibbous, 90% of the Moon is Illuminated
May 11
Waxing Gibbous
May 14
Full
May 21
Last Quarter
May 28
New
Jun 5
First Quarter

Hourly Weather History & Observations

Time (AKDT) Temp. Windchill Dew Point Humidity Pressure Visibility Wind Dir Wind Speed Gust Speed Precip Events Conditions
12:53 AM 35.1 °F 31.0 °F 35.1 °F 100% 30.32 in 3.0 mi East 4.6 mph - N/A   Overcast
1:53 AM 34.0 °F 29.8 °F 34.0 °F 100% 30.32 in 3.0 mi East 4.6 mph - N/A   Overcast
2:53 AM 34.0 °F 29.8 °F 34.0 °F 100% 30.32 in 3.0 mi ESE 4.6 mph - N/A   Overcast
3:25 AM 34.0 °F 28.8 °F 34.0 °F 100% 30.32 in 1.2 mi ESE 5.8 mph - N/A   Overcast
3:32 AM 34.0 °F 28.8 °F 34.0 °F 100% 30.33 in 0.8 mi ESE 5.8 mph - N/A   Overcast
3:53 AM 34.0 °F 29.8 °F 34.0 °F 100% 30.33 in 0.8 mi SE 4.6 mph - N/A   Overcast
4:51 AM 33.8 °F 28.6 °F 33.8 °F 100% 30.33 in 1.0 mi SE 5.8 mph - N/A   Overcast
4:53 AM 34.0 °F 28.8 °F 34.0 °F 100% 30.33 in 1.0 mi SE 5.8 mph - N/A   Overcast
5:26 AM 34.0 °F 28.8 °F 34.0 °F 100% 30.33 in 5.0 mi SE 5.8 mph - N/A   Overcast
5:53 AM 34.0 °F 28.8 °F 34.0 °F 100% 30.34 in 5.0 mi SE 5.8 mph - N/A   Overcast
6:53 AM 34.0 °F 28.0 °F 34.0 °F 100% 30.34 in 5.0 mi SE 6.9 mph - N/A   Overcast
7:53 AM 34.0 °F 29.8 °F 34.0 °F 100% 30.34 in 6.0 mi SSE 4.6 mph - N/A   Overcast
8:34 AM 34.0 °F 29.8 °F 34.0 °F 100% 30.34 in 6.0 mi SSE 4.6 mph - N/A   Overcast
8:53 AM 34.0 °F 29.8 °F 34.0 °F 100% 30.34 in 6.0 mi South 4.6 mph - N/A   Overcast
9:10 AM 34.0 °F 31.0 °F 34.0 °F 100% 30.34 in 6.0 mi South 3.5 mph - N/A   Overcast
9:53 AM 34.0 °F 31.0 °F 34.0 °F 100% 30.35 in 6.0 mi SE 3.5 mph - N/A   Overcast
10:21 AM 35.1 °F - 34.0 °F 96% 30.35 in 9.0 mi Calm Calm - N/A   Overcast
10:53 AM 35.1 °F - 35.1 °F 100% 30.35 in 9.0 mi Calm Calm - N/A   Overcast
11:53 AM 35.1 °F - 35.1 °F 100% 30.37 in 10.0 mi Calm Calm - N/A   Overcast
12:53 PM 35.1 °F 32.2 °F 35.1 °F 100% 30.37 in 10.0 mi South 3.5 mph - N/A   Overcast
1:53 PM 35.1 °F 32.2 °F 34.0 °F 96% 30.38 in 10.0 mi SW 3.5 mph - N/A   Overcast
2:21 PM 36.0 °F - 35.1 °F 97% 30.37 in 10.0 mi Calm Calm - N/A   Overcast
2:39 PM 36.0 °F - 35.1 °F 97% 30.37 in 10.0 mi Calm Calm - N/A   Overcast
2:53 PM 35.1 °F 31.0 °F 35.1 °F 100% 30.36 in 10.0 mi SSW 4.6 mph - N/A   Overcast
3:01 PM 36.0 °F 31.1 °F 35.1 °F 97% 30.37 in 10.0 mi SSW 5.8 mph - N/A   Overcast
3:23 PM 35.1 °F 30.1 °F 34.0 °F 96% 30.36 in 8.0 mi SW 5.8 mph - N/A   Overcast
3:53 PM 35.1 °F 30.1 °F 34.0 °F 96% 30.36 in 10.0 mi SW 5.8 mph - N/A   Overcast
4:53 PM 35.1 °F 31.0 °F 34.0 °F 96% 30.36 in 9.0 mi West 4.6 mph - N/A   Overcast
5:35 PM 36.0 °F 29.6 °F 34.0 °F 93% 30.36 in 10.0 mi West 8.1 mph - N/A   Overcast
5:53 PM 36.0 °F 28.0 °F 35.1 °F 97% 30.37 in 10.0 mi West 11.5 mph - N/A   Overcast
6:13 PM 36.0 °F 29.6 °F 35.1 °F 97% 30.36 in 10.0 mi WSW 8.1 mph - N/A   Overcast
6:35 PM 36.0 °F 29.0 °F 35.1 °F 97% 30.36 in 10.0 mi West 9.2 mph - N/A   Overcast
6:53 PM 35.1 °F 27.4 °F 34.0 °F 96% 30.36 in 10.0 mi West 10.4 mph - N/A   Overcast
7:02 PM 35.1 °F 27.9 °F 34.0 °F 96% 30.36 in 5.0 mi WSW 9.2 mph - N/A   Overcast
7:49 PM 33.8 °F 25.8 °F 33.8 °F 100% 30.36 in 7.0 mi West 10.4 mph - N/A   Overcast
7:53 PM 34.0 °F 26.0 °F 33.1 °F 96% 30.36 in 6.0 mi WSW 10.4 mph - N/A   Overcast
8:01 PM 33.1 °F 24.9 °F 33.1 °F 100% 30.36 in 1.5 mi WSW 10.4 mph - N/A   Overcast
8:12 PM 32.0 °F 23.6 °F 32.0 °F 100% 30.36 in 0.2 mi WSW 10.4 mph - N/A Fog Fog
8:22 PM 32.0 °F 23.6 °F 32.0 °F 100% 30.36 in 0.2 mi WSW 10.4 mph - N/A Fog Fog
8:53 PM 30.9 °F 24.3 °F 30.9 °F 100% 30.37 in 0.2 mi WSW 6.9 mph - N/A Fog Light Freezing Fog
9:53 PM 30.0 °F 21.1 °F 30.0 °F 100% 30.36 in 0.2 mi West 10.4 mph - N/A Fog Light Freezing Fog
10:35 PM 30.9 °F 23.5 °F 30.9 °F 100% 30.37 in 0.2 mi West 8.1 mph - N/A Fog Light Freezing Fog
10:53 PM 30.9 °F 23.5 °F 30.9 °F 100% 30.36 in 0.5 mi West 8.1 mph - N/A Fog Light Freezing Fog
11:00 PM 30.9 °F 24.3 °F 30.9 °F 100% 30.36 in 3.0 mi West 6.9 mph - N/A   Overcast
11:51 PM 30.2 °F 23.4 °F 30.2 °F 100% 30.37 in 10.0 mi West 6.9 mph - N/A   Overcast
11:53 PM 30.9 °F 24.3 °F 30.9 °F 100% 30.38 in 10.0 mi West 6.9 mph - N/A   Overcast